Regional Weather Roundup
Issued by NWS State College, PA

Home | Current Version | Previous Version | Text Only | Print | Product List | Glossary On
Versions: 1 2 3 4 5 6 7 8 9 10 11 12 13 14 15 16 17 18 19 20 21 22 23 24 25 26 27 28 29 30 31 32 33 34 35 36 37 38 39 40 41 42 43 44 45 46 47 48 49 50
000
ASUS41 KCTP 050710
RWRCTP

REGIONAL WEATHER ROUNDUP
NATIONAL WEATHER SERVICE STATE COLLEGE PA
300 AM EDT THU MAY 05 2016

Note: "fair" indicates few or no clouds below 12,000 feet with no
significant weather and/or obstructions to visibility.

* = STATION THAT DOES NOT REPORT PRECIPITATION /E.G. RAIN...SNOW...ETC/
    THUNDER OR FOG.

PAZ002>004-007>009-013>016-020>023-029>032-050800-
WESTERN PENNSYLVANIA

CITY           SKY/WX    TMP DP  RH WIND       PRES   REMARKS
ERIE           MOCLDY    47  43  86 E6        29.68R
MEADVILLE      CLOUDY    47  45  93 SW3       29.66F
FRANKLIN*      CLOUDY    48  45  87 NE3       29.69S
NEW CASTLE     CLOUDY    49  46  90 CALM      29.68F
BEAVER COUNTY  NOT AVBL
BUTLER*        CLOUDY    48  43  81 CALM      29.69F
PITTSBURGH INT CLOUDY    50  46  86 CALM      29.66F
PITTSBURGH     MOCLDY    48  44  86 SW6       29.66F
INDIANA*       CLOUDY    50  50 100 CALM      29.70F
LATROBE        CLOUDY    48  48 100 CALM      29.67F
WASHINGTON CO* CLOUDY    46  45  93 CALM      29.67F
$$

PAZ004>006-010>012-017>019-024>028-033>037-041-042-045-046-049>053-050800-
CENTRAL PENNSYLVANIA

CITY           SKY/WX    TMP DP  RH WIND       PRES   REMARKS
BRADFORD       CLOUDY    44  41  89 CALM      29.68F
DUBOIS         CLOUDY   N/A N/A N/A CALM      29.66F
CLEARFIELD     LGT RAIN  50  47  89 NE3       29.68F
JOHNSTOWN      LGT RAIN  47  42  83 NE5       29.66S
ALTOONA        CLOUDY    50  46  86 SE6       29.67F
STATE COLLEGE  CLOUDY    49  48  95 E3        29.69S FOG
WILLIAMSPORT   CLOUDY    50  46  86 E8        29.71S
SELINSGROVE    CLOUDY    51  46  83 CALM      29.72S
FT INDIANTOWN  CLOUDY    48  48 100 NE2       29.72S FOG
CAPITAL CITY   CLOUDY    50  46  86 E8        29.71F
HARRISBURG     CLOUDY    50  47  89 E6        29.71F FOG
YORK           CLOUDY    49  46  90 E7        29.70F FOG
$$

PAZ038>040-043-044-047-048-054-055-060>062-067>071-050800-
EASTERN PENNSYLVANIA

CITY           SKY/WX    TMP DP  RH WIND       PRES   REMARKS
SCRANTON       CLOUDY    47  43  86 CALM      29.72S
MOUNT POCONO   CLOUDY    39  39 100 E7        29.70S
ALLENTOWN      CLOUDY    48  44  86 NE8       29.73R
QUAKERTOWN*    CLOUDY    48  46  93 E5        29.73F
READING        CLOUDY    49  47  93 NE3       29.71F
LANCASTER      CLOUDY    49  47  93 E5        29.71F
COATESVILLE    CLOUDY    48  48 100 NE5G12    29.71F FOG
POTTSTOWN      CLOUDY    48  45  89 NE6       29.72F
BLUE BELL      CLOUDY    45  45 100 NE6       29.70F
DOYLESTOWN     CLOUDY    45  44  97 CALM      29.71F
WILLOW GROVE   NOT AVBL
NORTH PHILA    CLOUDY    49  47  93 NE6       29.72F FOG
PHILADELPHIA   CLOUDY    50  44  80 E9        29.71F
$$




USA.gov is the U.S. government's official web portal to all federal, state and local government web resources and services.